Location: Marcé
(47.5801°N, 0.3280°W)
Time: 01:29:49
(UTC+01:00)

Tiros 1 - Pass Details

Date: 03 December 2021
Orbit: 629 x 664 km, 48.4° (Epoch: 26 January)

Event Time Altitude Azimuth Distance (km) Brightness Sun altitude
Rises 21:01:23 0° 249° (WSW) 2,923 11.3 -37.9°
Reaches altitude 10° 21:03:42 10° 248° (WSW) 2,021 10.2 -38.3°
Enters shadow 21:03:56 11° 248° (WSW) 1,933 10.1 -38.4°
